Location: Nelson
(41.2830°S, 173.2830°E)
Time: 14:39:41
(UTC+13:00)

ATLAS 3B R/B - Pass Details

Date: 24 January 2019
Orbit: 1024 x 1171 km, 63.8° (Epoch: 19 January)

Event Time Altitude Azimuth Distance (km) Brightness Sun altitude
Exits shadow 22:18:33 17° 67° (ENE) 2,518 4.1 -13.8°
Maximum altitude 22:19:26 17° 76° (ENE) 2,503 4.1 -13.9°
Drops below altitude 10° 22:23:42 10° 112° (ESE) 3,027 4.8 -14.5°
Sets 22:27:31 0° 131° (SE) 4,021 5.7 -15.0°
